Time,TemperatureF,DewpointF,PressureIn,WindDirection,WindDirectionDegrees,WindSpeedMPH,WindSpeedGustMPH,Humidity,HourlyPrecipIn,Conditions,Clouds,dailyrainin,SoftwareType,DateUTC
2017-01-24 00:00:00,45.6,43.0,29.89,West,276,0.0,0.0,90,0.00,,,0.00,weatherlink.com 1.10,2017-01-24 06:00:00,
2017-01-24 00:15:00,45.6,43.0,29.89,West,276,0.0,0.0,90,0.00,,,0.00,weatherlink.com 1.10,2017-01-24 06:15:00,
2017-01-24 00:30:00,45.0,42.0,29.88,West,276,0.0,0.0,90,0.00,,,0.00,weatherlink.com 1.10,2017-01-24 06:30:00,
2017-01-24 00:45:00,45.6,43.0,29.87,West,276,0.0,0.0,90,0.00,,,0.00,weatherlink.com 1.10,2017-01-24 06:45:00,
2017-01-24 01:00:00,46.1,44.0,29.87,West,276,0.0,0.0,91,0.00,,,0.00,weatherlink.com 1.10,2017-01-24 07:00:00,
2017-01-24 01:15:00,45.1,43.0,29.87,West,276,0.0,0.0,91,0.00,,,0.00,weatherlink.com 1.10,2017-01-24 07:15:00,
2017-01-24 01:31:00,45.2,43.0,29.86,West,276,0.0,0.0,91,0.00,,,0.00,weatherlink.com 1.10,2017-01-24 07:31:00,
2017-01-24 01:45:00,44.8,42.0,29.87,West,276,0.0,0.0,91,0.00,,,0.00,weatherlink.com 1.10,2017-01-24 07:45:00,
2017-01-24 02:00:00,45.5,43.0,29.86,West,276,0.0,0.0,91,0.00,,,0.00,weatherlink.com 1.10,2017-01-24 08:00:00,
2017-01-24 02:15:00,45.9,43.0,29.86,West,276,0.0,0.0,90,0.00,,,0.00,weatherlink.com 1.10,2017-01-24 08:15:00,
2017-01-24 02:30:00,46.0,44.0,29.86,West,276,0.0,0.0,91,0.00,,,0.00,weatherlink.com 1.10,2017-01-24 08:30:00,
2017-01-24 02:45:00,46.1,43.0,29.86,West,276,0.0,0.0,90,0.00,,,0.00,weatherlink.com 1.10,2017-01-24 08:45:00,
2017-01-24 03:00:00,45.6,43.0,29.86,West,276,0.0,0.0,91,0.00,,,0.00,weatherlink.com 1.10,2017-01-24 09:00:00,
2017-01-24 03:15:00,45.8,43.0,29.86,West,276,0.0,0.0,90,0.00,,,0.00,weatherlink.com 1.10,2017-01-24 09:15:00,
2017-01-24 03:30:00,46.0,43.0,29.86,West,276,0.0,0.0,90,0.00,,,0.00,weatherlink.com 1.10,2017-01-24 09:30:00,
2017-01-24 03:45:00,46.1,43.0,29.86,West,276,0.0,0.0,90,0.00,,,0.00,weatherlink.com 1.10,2017-01-24 09:45:00,
2017-01-24 04:00:00,46.5,44.0,29.86,West,276,0.0,0.0,90,0.00,,,0.00,weatherlink.com 1.10,2017-01-24 10:00:00,
2017-01-24 04:15:00,46.3,44.0,29.86,West,276,0.0,0.0,90,0.00,,,0.00,weatherlink.com 1.10,2017-01-24 10:15:00,
2017-01-24 04:30:00,45.9,43.0,29.86,West,276,0.0,0.0,90,0.00,,,0.00,weatherlink.com 1.10,2017-01-24 10:30:00,
2017-01-24 04:45:00,45.9,43.0,29.86,West,276,0.0,0.0,90,0.00,,,0.00,weatherlink.com 1.10,2017-01-24 10:45:00,
2017-01-24 05:00:00,46.3,44.0,29.86,West,276,0.0,0.0,90,0.00,,,0.00,weatherlink.com 1.10,2017-01-24 11:00:00,
2017-01-24 05:15:00,45.9,43.0,29.86,West,276,0.0,0.0,90,0.00,,,0.00,weatherlink.com 1.10,2017-01-24 11:15:00,
2017-01-24 05:30:00,45.3,43.0,29.86,West,276,0.0,0.0,90,0.00,,,0.00,weatherlink.com 1.10,2017-01-24 11:30:00,
2017-01-24 05:45:00,44.9,42.0,29.86,West,276,0.0,0.0,90,0.00,,,0.00,weatherlink.com 1.10,2017-01-24 11:45:00,
2017-01-24 06:00:00,44.8,42.0,29.85,West,276,0.0,0.0,90,0.00,,,0.00,weatherlink.com 1.10,2017-01-24 12:00:00,
2017-01-24 06:15:00,45.2,43.0,29.85,West,276,0.0,0.0,90,0.00,,,0.00,weatherlink.com 1.10,2017-01-24 12:15:00,
2017-01-24 06:31:00,45.7,43.0,29.85,West,276,0.0,0.0,90,0.00,,,0.00,weatherlink.com 1.10,2017-01-24 12:31:00,
2017-01-24 06:45:00,46.4,44.0,29.85,West,276,0.0,0.0,90,0.00,,,0.00,weatherlink.com 1.10,2017-01-24 12:45:00,
2017-01-24 07:01:00,48.7,46.0,29.86,NW,313,0.0,0.0,90,0.00,,,0.00,weatherlink.com 1.10,2017-01-24 13:01:00,
2017-01-24 07:16:00,49.4,47.0,29.86,NW,315,0.0,0.0,90,0.00,,,0.00,weatherlink.com 1.10,2017-01-24 13:16:00,
2017-01-24 07:31:00,51.6,49.0,29.86,SE,139,0.0,1.0,90,0.00,,,0.00,weatherlink.com 1.10,2017-01-24 13:31:00,
2017-01-24 07:46:00,52.6,50.0,29.87,SE,135,0.0,1.0,90,0.00,,,0.00,weatherlink.com 1.10,2017-01-24 13:46:00,
2017-01-24 08:01:00,53.4,51.0,29.88,ESE,122,0.0,1.0,90,0.00,,,0.00,weatherlink.com 1.10,2017-01-24 14:01:00,